TimeCST,TemperatureF,Dew PointF,Humidity,Sea Level PressureIn,VisibilityMPH,Wind Direction,Wind SpeedMPH,Gust SpeedMPH,PrecipitationIn,Events,Conditions,WindDirDegrees,DateUTC
12:58 AM,58.3,57.7,98,29.81,9.0,NW,3.5,-,N/A,,Overcast,320,2013-02-13 06:58:00
1:03 AM,57.2,57.2,100,29.79,8.0,NW,2.3,-,N/A,,Overcast,320,2013-02-13 07:03:00
1:08 AM,57.2,57.2,100,29.79,8.0,Calm,Calm,-,N/A,,Overcast,0,2013-02-13 07:08:00
1:58 AM,57.4,56.8,98,29.77,1.5,East,2.3,-,N/A,,Scattered Clouds,90,2013-02-13 07:58:00
2:03 AM,57.2,57.2,100,29.77,1.2,SE,4.6,-,N/A,,Scattered Clouds,130,2013-02-13 08:03:00
2:08 AM,57.2,57.2,100,29.77,1.2,SE,4.6,-,N/A,,Mostly Cloudy,130,2013-02-13 08:08:00
2:13 AM,57.2,57.2,100,29.76,1.0,ESE,2.3,-,N/A,,Mist,110,2013-02-13 08:13:00
2:18 AM,57.2,57.2,100,29.76,0.8,East,2.3,-,N/A,,Mist,90,2013-02-13 08:18:00
2:23 AM,57.2,57.2,100,29.76,0.8,Calm,Calm,-,N/A,,Mist,0,2013-02-13 08:23:00
2:28 AM,57.2,57.2,100,29.76,0.5,Calm,Calm,-,N/A,Fog,Fog,0,2013-02-13 08:28:00
2:43 AM,57.2,57.2,100,29.77,0.5,Calm,Calm,-,N/A,Fog,Fog,0,2013-02-13 08:43:00
2:58 AM,57.2,57.2,100,29.78,0.5,NW,3.5,-,N/A,Fog,Fog,320,2013-02-13 08:58:00
3:03 AM,57.2,57.2,100,29.77,0.5,NNW,2.3,-,N/A,Fog,Fog,330,2013-02-13 09:03:00
3:08 AM,57.2,57.2,100,29.77,0.8,NW,1.2,-,N/A,,Mist,320,2013-02-13 09:08:00
3:13 AM,57.2,57.2,100,29.77,1.0,Calm,Calm,-,N/A,,Mist,0,2013-02-13 09:13:00
3:18 AM,57.2,57.2,100,29.77,1.2,Calm,Calm,-,N/A,,Partly Cloudy,0,2013-02-13 09:18:00
3:23 AM,57.2,57.2,100,29.77,1.5,Calm,Calm,-,N/A,,Partly Cloudy,0,2013-02-13 09:23:00
3:38 AM,57.2,57.2,100,29.77,2.5,WNW,2.3,-,N/A,,Partly Cloudy,290,2013-02-13 09:38:00
3:58 AM,56.7,56.3,99,29.79,3.0,SW,2.3,-,N/A,,Clear,220,2013-02-13 09:58:00
4:56 AM,60.8,59.0,94,29.81,6.0,WNW,9.2,-,N/A,,Scattered Clouds,300,2013-02-13 10:56:00
4:58 AM,60.8,59.0,94,29.82,6.0,WNW,8.1,-,N/A,,Scattered Clouds,290,2013-02-13 10:58:00
5:03 AM,60.8,60.8,100,29.80,6.0,West,11.5,-,N/A,,Mostly Cloudy,280,2013-02-13 11:03:00
5:08 AM,60.8,60.8,100,29.81,6.0,West,12.7,20.7,N/A,,Mostly Cloudy,280,2013-02-13 11:08:00
5:13 AM,62.6,60.8,94,29.81,6.0,West,12.7,21.9,N/A,,Mostly Cloudy,270,2013-02-13 11:13:00
5:33 AM,60.8,60.8,100,29.82,8.0,West,11.5,-,N/A,,Overcast,270,2013-02-13 11:33:00
5:48 AM,60.8,60.8,100,29.83,9.0,West,13.8,-,N/A,,Mostly Cloudy,270,2013-02-13 11:48:00
5:58 AM,60.3,59.7,98,29.84,10.0,West,9.2,-,N/A,,Mostly Cloudy,270,2013-02-13 11:58:00
6:08 AM,59.0,59.0,100,29.84,10.0,West,8.1,-,N/A,,Scattered Clouds,280,2013-02-13 12:08:00
6:58 AM,57.9,56.3,94,29.87,10.0,West,8.1,-,N/A,,Clear,260,2013-02-13 12:58:00
7:58 AM,59.5,54.5,83,29.88,10.0,West,9.2,-,N/A,,Clear,270,2013-02-13 13:58:00
8:58 AM,59.5,50.5,72,29.90,10.0,West,12.7,19.6,N/A,,Scattered Clouds,280,2013-02-13 14:58:00
9:58 AM,60.1,49.8,69,29.89,10.0,West,8.1,-,N/A,,Partly Cloudy,270,2013-02-13 15:58:00
10:58 AM,60.6,48.4,64,29.91,10.0,West,12.7,-,N/A,,Partly Cloudy,280,2013-02-13 16:58:00
11:58 AM,58.3,48.6,70,29.92,10.0,West,9.2,-,N/A,,Scattered Clouds,280,2013-02-13 17:58:00
12:58 PM,57.4,45.7,65,29.90,10.0,West,11.5,-,N/A,,Mostly Cloudy,280,2013-02-13 18:58:00
1:17 PM,57.2,46.4,67,29.89,10.0,West,10.4,-,N/A,Rain,Light Rain,260,2013-02-13 19:17:00
1:37 PM,55.4,46.4,72,29.87,10.0,WNW,11.5,-,N/A,,Mostly Cloudy,290,2013-02-13 19:37:00
1:58 PM,54.0,47.3,78,29.90,10.0,West,8.1,-,0.00,,Overcast,280,2013-02-13 19:58:00
2:28 PM,53.6,48.2,82,29.91,10.0,West,8.1,-,N/A,Rain,Light Rain,280,2013-02-13 20:28:00
2:58 PM,52.0,48.2,87,29.89,10.0,West,5.8,-,0.00,Rain,Light Rain,280,2013-02-13 20:58:00
3:31 PM,51.8,48.2,88,29.88,10.0,WNW,6.9,-,N/A,Rain,Light Rain,300,2013-02-13 21:31:00
3:33 PM,51.8,48.2,88,29.88,10.0,WNW,5.8,-,N/A,Rain,Light Rain,300,2013-02-13 21:33:00
3:58 PM,50.4,48.4,93,29.93,9.0,WNW,10.4,-,0.02,Rain,Light Rain,300,2013-02-13 21:58:00
4:30 PM,48.2,46.4,93,29.92,8.0,NW,5.8,-,N/A,Rain,Rain,320,2013-02-13 22:30:00
4:55 PM,48.2,44.6,87,29.93,7.0,NW,9.2,-,N/A,Rain,Light Rain,310,2013-02-13 22:55:00
5:16 PM,48.2,46.4,93,29.95,10.0,NW,6.9,-,N/A,Rain,Light Rain,320,2013-02-13 23:16:00
5:18 PM,48.2,46.4,93,29.93,10.0,NNW,4.6,-,N/A,,Mostly Cloudy,330,2013-02-13 23:18:00
5:23 PM,48.2,44.6,87,29.93,10.0,NW,6.9,-,N/A,,Scattered Clouds,310,2013-02-13 23:23:00
5:58 PM,47.5,45.3,92,29.96,10.0,NW,6.9,-,0.01,,Clear,310,2013-02-13 23:58:00
6:58 PM,47.3,45.0,92,29.98,10.0,WNW,1.2,-,N/A,,Clear,290,2013-02-14 00:58:00
7:58 PM,46.9,44.8,92,29.99,10.0,WNW,4.6,-,N/A,,Clear,300,2013-02-14 01:58:00
8:58 PM,46.6,44.4,92,30.00,10.0,NW,2.3,-,N/A,,Partly Cloudy,310,2013-02-14 02:58:00
9:58 PM,46.0,44.1,93,30.03,10.0,West,4.6,-,N/A,,Partly Cloudy,280,2013-02-14 03:58:00
11:58 PM,45.1,42.6,91,30.04,10.0,WNW,4.6,-,N/A,,Clear,300,2013-02-14 05:58:00